Weather History for Cherry Point, NC

Change the Weather History Date:

Friday, October 4, 2013

  Actual Average Record
Temperature  
Mean Temperature 72 °F -  
Max Temperature 84 °F 75 °F 87 °F (2002)
Min Temperature 61 °F 57 °F 48 °F (2011)
Cooling Degree Days 6    
Growing Degree Days 22 (Base 50)    
Moisture  
Dew Point 63 °F    
Average Humidity 82    
Maximum Humidity 97    
Minimum Humidity 53    
Precipitation  
Precipitation 0.00 in - - ()
Sea Level Pressure  
Sea Level Pressure 30.12 in    
Wind  
Wind Speed 1 mph (SSE)    
Max Wind Speed 8 mph    
Max Gust Speed -    
Visibility 6 miles    
Events      
Averages and records for this station are not official NWS values.
T = Trace of Precipitation, MM = Missing Value Source: NWS Daily Summary

Daily Weather History Graph

Daily Weather History Graph

Search for Another Location

Airport:

Trip Planner

Search our weather history database for the weather conditions in past years. The results will help you decide how hot, cold, wet, or windy it might be!

Date:

Astronomy

Oct. 04, 2013 Rise Set
Actual Time 7:04 AM EDT 6:47 PM EDT
Civil Twilight 6:39 AM EDT 7:12 PM EDT
Nautical Twilight 6:10 AM EDT 7:41 PM EDT
Astronomical Twilight 5:40 AM EDT 8:10 PM EDT
Moon 6:37 AM EDT (10/4) 6:29 PM EDT (10/4)
Length of Visible Light 12h 32m
Length of Day
11h 42m
Waning Crescent, 0% of the Moon is Illuminated
Oct 4
Waning Crescent
Oct 4
New
Oct 11
First Quarter
Oct 18
Full
Oct 26
Last Quarter

Hourly Weather History & Observations

Time (EDT) Temp. Heat Index Dew Point Humidity Pressure Visibility Wind Dir Wind Speed Gust Speed Precip Events Conditions
12:54 AM 66.9 °F - 64.9 °F 93% 30.13 in 5.0 mi Calm Calm - N/A   Scattered Clouds
1:15 AM 66.0 °F - 64.0 °F 93% 30.13 in 4.0 mi Calm Calm - N/A   Partly Cloudy
1:54 AM 63.0 °F - 61.0 °F 93% 30.12 in 4.0 mi ESE 3.5 mph - N/A   Mostly Cloudy
2:01 AM 64.0 °F - 61.0 °F 90% 30.13 in 2.5 mi ESE 4.6 mph - N/A   Scattered Clouds
2:09 AM 63.0 °F - 61.0 °F 93% 30.13 in 1.5 mi East 3.5 mph - N/A   Scattered Clouds
2:54 AM 63.0 °F - 61.0 °F 93% 30.11 in 1.5 mi Calm Calm - N/A   Scattered Clouds
3:01 AM 63.0 °F - 61.0 °F 93% 30.12 in 7.0 mi Calm Calm - N/A   Scattered Clouds
3:54 AM 63.0 °F - 60.1 °F 90% 30.11 in 7.0 mi Calm Calm - N/A   Scattered Clouds
4:51 AM 62.6 °F - 60.8 °F 94% 30.12 in 1.8 mi Calm Calm - N/A   Scattered Clouds
4:54 AM 62.1 °F - 60.1 °F 93% 30.12 in 1.2 mi Calm Calm - N/A   Scattered Clouds
5:02 AM 61.0 °F - 59.0 °F 93% 30.12 in 3.0 mi Calm Calm - N/A   Partly Cloudy
5:54 AM 61.0 °F - 57.9 °F 90% 30.12 in 8.0 mi Calm Calm - N/A   Partly Cloudy
6:43 AM 61.0 °F - 59.0 °F 93% 30.13 in 0.8 mi Calm Calm - N/A   Scattered Clouds
6:46 AM 61.0 °F - 59.0 °F 93% 30.13 in 0.8 mi Calm Calm - N/A   Scattered Clouds
6:54 AM 61.0 °F - 59.0 °F 93% 30.12 in 0.8 mi Calm Calm - N/A   Scattered Clouds
7:54 AM 62.1 °F - 61.0 °F 96% 30.14 in 2.0 mi Calm Calm - N/A   Scattered Clouds
8:01 AM 63.0 °F - 62.1 °F 97% 30.15 in 7.0 mi Calm Calm - N/A   Partly Cloudy
8:54 AM 71.1 °F - 66.9 °F 87% 30.15 in 7.0 mi Calm Calm - N/A   Partly Cloudy
9:54 AM 75.9 °F - 66.9 °F 74% 30.16 in 10.0 mi Calm Calm - N/A   Clear
10:54 AM 80.1 °F 81.7 °F 64.0 °F 58% 30.15 in 10.0 mi Variable 3.5 mph - N/A   Clear
11:54 AM 81.0 °F 82.7 °F 64.9 °F 58% 30.14 in 10.0 mi Variable 3.5 mph - N/A   Scattered Clouds
12:54 PM 82.9 °F 84.4 °F 64.0 °F 53% 30.12 in 10.0 mi Calm Calm - N/A   Scattered Clouds
1:54 PM 81.0 °F 82.2 °F 63.0 °F 54% 30.10 in 10.0 mi Calm Calm - N/A   Scattered Clouds
2:54 PM 82.0 °F 84.5 °F 66.9 °F 60% 30.08 in 10.0 mi South 4.6 mph - N/A   Mostly Cloudy
3:54 PM 80.1 °F 81.9 °F 64.9 °F 60% 30.08 in 10.0 mi South 8.1 mph - N/A   Mostly Cloudy
4:54 PM 81.0 °F 82.2 °F 63.0 °F 54% 30.08 in 10.0 mi South 6.9 mph - N/A   Partly Cloudy
5:54 PM 78.1 °F - 63.0 °F 60% 30.08 in 10.0 mi South 5.8 mph - N/A   Partly Cloudy
6:54 PM 73.0 °F - 64.9 °F 76% 30.08 in 10.0 mi South 5.8 mph - N/A   Clear
7:54 PM 71.1 °F - 66.0 °F 84% 30.09 in 10.0 mi South 4.6 mph - N/A   Clear
8:54 PM 70.0 °F - 66.0 °F 87% 30.10 in 10.0 mi South 3.5 mph - N/A   Clear
9:54 PM 66.9 °F - 64.0 °F 90% 30.11 in 7.0 mi Calm Calm - N/A   Clear
10:54 PM 66.9 °F - 64.0 °F 90% 30.12 in 6.0 mi South 3.5 mph - N/A   Clear
11:54 PM 66.9 °F - 64.0 °F 90% 30.12 in 5.0 mi Calm Calm - N/A   Clear